Tacoma Narrows, WA
on Friday, December 7, 2012

Friday
Previous Day Next Day
Daily Summary
 ActualAverageRecord
Temperature
Mean Temperature °F / °C °F / °C  
Max Temperature 46°F / 8°C 45°F / 7°C 48°F / 8°C (1996)
Min Temperature 39°F / 4°C 38°F / 3°C 21°F / -6°C (2013)
Degree Days
Heating Degree Days 22    
Moisture
Dew Point 38°F / 3°C   
Average Humidity 80    
Maximum Humidity 89    
Minimum Humidity 63    
Precipitation
Precipitation 0.19 in / 4.83 cm in / cm in / cm ()
Wind
Wind Speed 12 mph / 19 km/h   
Max Wind Speed 18 mph / 29 km/h   
Max Gust Speed 29 mph / 47 km/h   
Visibility 10 miles / 15 kilometers   
Events Rain   
Averages and records for this station are not official NWS values.
Key: T is trace of precipitation, MM is missing value
Source: NWS Daily Summary
Seasonal Weather Averages
Time(PST)TemperatureDew PointHumidity Pressure Visibility Wind DirectionWind SpeedGust SpeedPrecipitationEvents Conditions
12:09 AM 42.8°F / 6.0°C 39.2°F / 4.0°C 87% 30.10 in / 1019.2 hPa 10.0 miles / 16.1 kilometers SSW 11.5 mph / 18.5 km/h - 0.00 in / 0.0 cm   Overcast
12:53 AM 44.1°F / 6.7°C 39.0°F / 3.9°C 82% 30.10 in / 1019.3 hPa 10.0 miles / 16.1 kilometers South 12.7 mph / 20.4 km/h - 0.00 in / 0.0 cm   Overcast
1:30 AM 44.6°F / 7.0°C 39.2°F / 4.0°C 81% 30.09 in / 1018.8 hPa 8.0 miles / 12.9 kilometers South 12.7 mph / 20.4 km/h - 0.02 in / 0.5 cm Rain Light Rain
1:53 AM 44.1°F / 6.7°C 39.9°F / 4.4°C 85% 30.09 in / 1018.8 hPa 6.0 miles / 9.7 kilometers South 11.5 mph / 18.5 km/h - 0.06 in / 1.5 cm Rain Light Rain
2:08 AM 42.8°F / 6.0°C 39.2°F / 4.0°C 87% 30.08 in / 1018.5 hPa 8.0 miles / 12.9 kilometers SSW 6.9 mph / 11.1 km/h - 0.02 in / 0.5 cm Rain Light Rain
2:25 AM 44.6°F / 7.0°C 39.2°F / 4.0°C 81% 30.08 in / 1018.5 hPa 10.0 miles / 16.1 kilometers South 15.0 mph / 24.1 km/h 19.6 mph / 31.5 km/h 0.03 in / 0.8 cm Rain Light Rain
2:40 AM 44.6°F / 7.0°C 39.2°F / 4.0°C 81% 30.08 in / 1018.5 hPa 9.0 miles / 14.5 kilometers SSW 9.2 mph / 14.8 km/h 17.3 mph / 27.8 km/h 0.04 in / 1.0 cm Rain Light Rain
2:48 AM 44.6°F / 7.0°C 39.2°F / 4.0°C 81% 30.08 in / 1018.5 hPa 10.0 miles / 16.1 kilometers SSW 9.2 mph / 14.8 km/h 16.1 mph / 25.9 km/h 0.04 in / 1.0 cm Rain Light Rain
2:53 AM 44.1°F / 6.7°C 39.9°F / 4.4°C 85% 30.09 in / 1018.8 hPa 10.0 miles / 16.1 kilometers SW 11.5 mph / 18.5 km/h 19.6 mph / 31.5 km/h 0.05 in / 1.3 cm Rain Light Rain
3:16 AM 44.6°F / 7.0°C 41.0°F / 5.0°C 87% 30.07 in / 1018.2 hPa 7.0 miles / 11.3 kilometers SSW 10.4 mph / 16.7 km/h - 0.02 in / 0.5 cm Rain Light Rain
3:44 AM 44.6°F / 7.0°C 41.0°F / 5.0°C 87% 30.06 in / 1017.8 hPa 10.0 miles / 16.1 kilometers South 13.8 mph / 22.2 km/h 23.0 mph / 37.0 km/h 0.02 in / 0.5 cm   Overcast
3:53 AM 44.1°F / 6.7°C 39.9°F / 4.4°C 85% 30.06 in / 1018.0 hPa 10.0 miles / 16.1 kilometers South 13.8 mph / 22.2 km/h 23.0 mph / 37.0 km/h 0.02 in / 0.5 cm   Overcast
4:46 AM 44.6°F / 7.0°C 39.2°F / 4.0°C 81% 30.04 in / 1017.2 hPa 10.0 miles / 16.1 kilometers South 16.1 mph / 25.9 km/h - N/A   Overcast
4:53 AM 44.1°F / 6.7°C 39.9°F / 4.4°C 85% 30.05 in / 1017.5 hPa 10.0 miles / 16.1 kilometers South 17.3 mph / 27.8 km/h 24.2 mph / 38.9 km/h 0.00 in / 0.0 cm Rain Light Rain
5:53 AM 44.1°F / 6.7°C 41.0°F / 5.0°C 89% 30.03 in / 1016.9 hPa 7.0 miles / 11.3 kilometers South 15.0 mph / 24.1 km/h 23.0 mph / 37.0 km/h 0.03 in / 0.8 cm Rain Light Rain
6:35 AM 44.6°F / 7.0°C 41.0°F / 5.0°C 87% 30.00 in / 1015.8 hPa 10.0 miles / 16.1 kilometers South 17.3 mph / 27.8 km/h - 0.03 in / 0.8 cm Rain Light Rain
6:45 AM 44.6°F / 7.0°C 41.0°F / 5.0°C 87% 30.00 in / 1015.8 hPa 10.0 miles / 16.1 kilometers South 16.1 mph / 25.9 km/h 24.2 mph / 38.9 km/h 0.03 in / 0.8 cm   Overcast
6:53 AM 45.0°F / 7.2°C 41.0°F / 5.0°C 86% 30.01 in / 1016.0 hPa 10.0 miles / 16.1 kilometers SSW 18.4 mph / 29.6 km/h 26.5 mph / 42.6 km/h 0.03 in / 0.8 cm   Overcast
7:02 AM 44.6°F / 7.0°C 41.0°F / 5.0°C 87% 30.00 in / 1015.8 hPa 10.0 miles / 16.1 kilometers SSW 13.8 mph / 22.2 km/h 26.5 mph / 42.6 km/h N/A   Overcast
7:10 AM 44.6°F / 7.0°C 41.0°F / 5.0°C 87% 30.00 in / 1015.8 hPa 10.0 miles / 16.1 kilometers SSW 11.5 mph / 18.5 km/h 25.3 mph / 40.7 km/h N/A   Overcast
7:20 AM 44.6°F / 7.0°C 41.0°F / 5.0°C 87% 29.99 in / 1015.5 hPa 10.0 miles / 16.1 kilometers South 12.7 mph / 20.4 km/h 20.7 mph / 33.3 km/h N/A   Overcast
7:27 AM 44.6°F / 7.0°C 41.0°F / 5.0°C 87% 29.99 in / 1015.5 hPa 10.0 miles / 16.1 kilometers SSW 11.5 mph / 18.5 km/h 20.7 mph / 33.3 km/h N/A   Overcast
7:53 AM 45.0°F / 7.2°C 41.0°F / 5.0°C 86% 30.00 in / 1015.7 hPa 10.0 miles / 16.1 kilometers SSW 13.8 mph / 22.2 km/h 21.9 mph / 35.2 km/h 0.00 in / 0.0 cm   Overcast
8:27 AM 44.6°F / 7.0°C 39.2°F / 4.0°C 81% 29.98 in / 1015.1 hPa 10.0 miles / 16.1 kilometers SSW 13.8 mph / 22.2 km/h 23.0 mph / 37.0 km/h N/A   Scattered Clouds
8:53 AM 45.0°F / 7.2°C 39.9°F / 4.4°C 82% 29.99 in / 1015.4 hPa 10.0 miles / 16.1 kilometers SSW 16.1 mph / 25.9 km/h 25.3 mph / 40.7 km/h N/A   Partly Cloudy
9:53 AM 45.0°F / 7.2°C 39.9°F / 4.4°C 82% 30.00 in / 1015.7 hPa 10.0 miles / 16.1 kilometers SSW 10.4 mph / 16.7 km/h 20.7 mph / 33.3 km/h N/A   Partly Cloudy
10:53 AM 45.0°F / 7.2°C 39.0°F / 3.9°C 80% 30.00 in / 1015.7 hPa 10.0 miles / 16.1 kilometers SW 15.0 mph / 24.1 km/h 23.0 mph / 37.0 km/h N/A   Scattered Clouds
11:53 AM 46.0°F / 7.8°C 37.9°F / 3.3°C 73% 29.98 in / 1015.1 hPa 10.0 miles / 16.1 kilometers SSW 18.4 mph / 29.6 km/h 28.8 mph / 46.3 km/h N/A   Scattered Clouds
12:53 PM 45.0°F / 7.2°C 37.0°F / 2.8°C 74% 29.99 in / 1015.5 hPa 10.0 miles / 16.1 kilometers WSW 11.5 mph / 18.5 km/h 21.9 mph / 35.2 km/h N/A   Clear
1:53 PM 45.0°F / 7.2°C 33.1°F / 0.6°C 63% 30.00 in / 1015.8 hPa 10.0 miles / 16.1 kilometers SW 15.0 mph / 24.1 km/h 25.3 mph / 40.7 km/h N/A   Clear
2:53 PM 44.1°F / 6.7°C 33.1°F / 0.6°C 65% 30.03 in / 1016.9 hPa 10.0 miles / 16.1 kilometers WSW 8.1 mph / 13.0 km/h 17.3 mph / 27.8 km/h N/A   Clear
3:53 PM 43.0°F / 6.1°C 33.1°F / 0.6°C 68% 30.06 in / 1017.7 hPa 10.0 miles / 16.1 kilometers WSW 11.5 mph / 18.5 km/h 18.4 mph / 29.6 km/h N/A   Scattered Clouds
4:53 PM 42.1°F / 5.6°C 33.1°F / 0.6°C 70% 30.07 in / 1018.2 hPa 10.0 miles / 16.1 kilometers WSW 8.1 mph / 13.0 km/h 16.1 mph / 25.9 km/h N/A   Clear
5:53 PM 42.1°F / 5.6°C 33.1°F / 0.6°C 70% 30.09 in / 1019.0 hPa 10.0 miles / 16.1 kilometers SSW 4.6 mph / 7.4 km/h - N/A   Clear
6:53 PM 41.0°F / 5.0°C 33.1°F / 0.6°C 73% 30.10 in / 1019.3 hPa 10.0 miles / 16.1 kilometers SW 6.9 mph / 11.1 km/h - N/A   Clear
7:53 PM 41.0°F / 5.0°C 32.0°F / 0.0°C 70% 30.12 in / 1019.9 hPa 10.0 miles / 16.1 kilometers SW 5.8 mph / 9.3 km/h - N/A   Clear
8:53 PM 41.0°F / 5.0°C 32.0°F / 0.0°C 70% 30.13 in / 1020.2 hPa 10.0 miles / 16.1 kilometers Variable 6.9 mph / 11.1 km/h - N/A   Clear
9:53 PM 39.9°F / 4.4°C 32.0°F / 0.0°C 73% 30.14 in / 1020.7 hPa 10.0 miles / 16.1 kilometers SSW 6.9 mph / 11.1 km/h - N/A   Overcast
10:53 PM 41.0°F / 5.0°C 32.0°F / 0.0°C 70% 30.15 in / 1020.8 hPa 10.0 miles / 16.1 kilometers SSW 8.1 mph / 13.0 km/h - N/A   Overcast
11:53 PM 41.0°F / 5.0°C 33.1°F / 0.6°C 73% 30.16 in / 1021.2 hPa 10.0 miles / 16.1 kilometers SSW 6.9 mph / 11.1 km/h - N/A   Mostly Cloudy
Moon Phase
Dec. 07 Dec. 13 Dec. 20 Dec. 28 Jan. 04
Sunrise:07:43 AM (PST) Moon Rise:12:46 AM (PST)12/7
Sunset:04:20 PM (PST) Moon Set:12:40 PM (PST)12/7

Copyright © 2014 The Weather Underground, Inc.